When you browse on this site, cookies collect data to enhance your experience and personalize the content and advertising you see.
Visit our Privacy Policy to learn more. By continuing to use the site, you agree to this use of cookies and data.
  • In Spain
  • List of Countries
  • For 7 days
  • Water Temperature
  • Weather Map
  • Weather Widgets
  • user-avatar
    Login

    Hourly Weather Dahab

    Today, 29 February, Saturday

    Time Temperature Precipitation Wind Pressure Humidity
    00:00 +18°C° 0 mm 2 mps 712 mmHg 34%
    01:00 +17°C° 0 mm 2 mps 712 mmHg 35%
    02:00 +17°C° 0 mm 3 mps 712 mmHg 35%
    03:00 +17°C° 0 mm 3 mps 712 mmHg 35%
    04:00 +16°C° 0 mm 3 mps 712 mmHg 35%
    05:00 +16°C° 0 mm 3 mps 712 mmHg 35%
    06:00 +17°C° 0 mm 2 mps 713 mmHg 32%
    07:00 +18°C° 0 mm 2 mps 713 mmHg 29%
    08:00 +20°C° 0 mm 1 mps 713 mmHg 26%
    09:00 +20°C° 0 mm 2 mps 713 mmHg 26%
    10:00 +21°C° 0 mm 4 mps 713 mmHg 25%
    11:00 +22°C° 0 mm 5 mps 713 mmHg 25%
    12:00 +22°C° 0 mm 5 mps 713 mmHg 26%
    13:00 +22°C° 0 mm 5 mps 712 mmHg 27%
    14:00 +22°C° 0 mm 5 mps 712 mmHg 28%
    15:00 +22°C° 0 mm 5 mps 712 mmHg 30%
    16:00 +21°C° 0 mm 4 mps 712 mmHg 31%
    17:00 +20°C° 0 mm 4 mps 712 mmHg 33%
    18:00 +19°C° 0 mm 4 mps 713 mmHg 33%
    19:00 +18°C° 0 mm 3 mps 713 mmHg 34%
    20:00 +17°C° 0 mm 3 mps 713 mmHg 35%
    21:00 +16°C° 0 mm 3 mps 713 mmHg 37%
    22:00 +16°C° 0 mm 3 mps 713 mmHg 39%
    23:00 +14°C° 0 mm 4 mps 714 mmHg 41%

    Tomorrow, 1 March, Sunday

    Time Temperature Precipitation Wind Pressure Humidity
    00:00 +13°C° 0 mm 4 mps 713 mmHg 44%
    01:00 +13°C° 0 mm 4 mps 713 mmHg 46%
    02:00 +12°C° 0 mm 4 mps 713 mmHg 49%
    03:00 +12°C° 0 mm 4 mps 713 mmHg 51%
    04:00 +11°C° 0 mm 4 mps 713 mmHg 52%
    05:00 +10°C° 0 mm 4 mps 713 mmHg 54%
    06:00 +12°C° 0 mm 3 mps 714 mmHg 49%
    07:00 +13°C° 0 mm 3 mps 715 mmHg 44%
    08:00 +14°C° 0 mm 3 mps 715 mmHg 38%
    09:00 +15°C° 0 mm 4 mps 715 mmHg 34%
    10:00 +16°C° 0 mm 5 mps 715 mmHg 30%
    11:00 +19°C° 0 mm 5 mps 716 mmHg 25%
    12:00 +20°C° 0 mm 6 mps 715 mmHg 25%
    13:00 +20°C° 0 mm 6 mps 715 mmHg 25%
    14:00 +21°C° 0 mm 6 mps 714 mmHg 25%
    15:00 +20°C° 0 mm 6 mps 714 mmHg 28%
    16:00 +20°C° 0 mm 5 mps 714 mmHg 31%
    17:00 +19°C° 0 mm 5 mps 714 mmHg 33%
    18:00 +17°C° 0 mm 5 mps 715 mmHg 37%
    19:00 +17°C° 0 mm 4 mps 715 mmHg 40%
    20:00 +15°C° 0 mm 4 mps 715 mmHg 44%
    21:00 +14°C° 0 mm 4 mps 715 mmHg 43%
    22:00 +14°C° 0 mm 3 mps 715 mmHg 43%
    23:00 +13°C° 0 mm 3 mps 715 mmHg 43%

    Day after tomorrow, 2 March, Monday

    Time Temperature Precipitation Wind Pressure Humidity
    00:00 +13°C° 0 mm 3 mps 715 mmHg 42%
    01:00 +12°C° 0 mm 3 mps 715 mmHg 40%
    02:00 +12°C° 0 mm 3 mps 715 mmHg 39%
    03:00 +11°C° 0 mm 3 mps 715 mmHg 38%
    04:00 +11°C° 0 mm 3 mps 714 mmHg 38%
    05:00 +11°C° 0 mm 3 mps 714 mmHg 38%
    06:00 +12°C° 0 mm 3 mps 715 mmHg 34%
    07:00 +15°C° 0 mm 2 mps 716 mmHg 29%
    08:00 +17°C° 0 mm 2 mps 716 mmHg 25%
    09:00 +18°C° 0 mm 3 mps 716 mmHg 23%
    10:00 +20°C° 0 mm 4 mps 716 mmHg 21%
    11:00 +21°C° 0 mm 4 mps 716 mmHg 20%
    12:00 +22°C° 0 mm 4 mps 716 mmHg 21%
    13:00 +22°C° 0 mm 4 mps 715 mmHg 22%
    14:00 +23°C° 0 mm 4 mps 715 mmHg 24%
    15:00 +22°C° 0 mm 4 mps 715 mmHg 27%
    16:00 +21°C° 0 mm 4 mps 715 mmHg 30%
    17:00 +21°C° 0 mm 3 mps 715 mmHg 33%
    18:00 +20°C° 0 mm 3 mps 715 mmHg 36%
    19:00 +19°C° 0 mm 3 mps 715 mmHg 39%
    20:00 +18°C° 0 mm 3 mps 715 mmHg 42%
    21:00 +17°C° 0 mm 3 mps 715 mmHg 42%
    22:00 +17°C° 0 mm 3 mps 715 mmHg 43%
    23:00 +16°C° 0 mm 3 mps 715 mmHg 44%

    3 March, Tuesday

    Time Temperature Precipitation Wind Pressure Humidity
    00:00 +16°C° 0 mm 3 mps 715 mmHg 43%
    01:00 +14°C° 0 mm 3 mps 715 mmHg 42%
    02:00 +14°C° 0 mm 3 mps 715 mmHg 41%
    03:00 +13°C° 0 mm 3 mps 715 mmHg 40%
    04:00 +13°C° 0 mm 3 mps 715 mmHg 39%
    05:00 +13°C° 0 mm 3 mps 714 mmHg 38%
    06:00 +16°C° 0 mm 3 mps 715 mmHg 31%
    07:00 +18°C° 0 mm 3 mps 715 mmHg 24%
    08:00 +20°C° 0 mm 3 mps 716 mmHg 17%
    09:00 +22°C° 0 mm 3 mps 716 mmHg 16%
    10:00 +24°C° 0 mm 3 mps 716 mmHg 15%
    11:00 +25°C° 0 mm 4 mps 716 mmHg 14%
    12:00 +26°C° 0 mm 4 mps 715 mmHg 15%
    13:00 +26°C° 0 mm 4 mps 715 mmHg 16%
    14:00 +27°C° 0 mm 4 mps 714 mmHg 17%
    15:00 +26°C° 0 mm 3 mps 714 mmHg 19%
    16:00 +26°C° 0 mm 3 mps 714 mmHg 21%
    17:00 +25°C° 0 mm 2 mps 714 mmHg 23%
    18:00 +24°C° 0 mm 2 mps 714 mmHg 26%
    19:00 +21°C° 0 mm 2 mps 714 mmHg 28%
    20:00 +21°C° 0 mm 1 mps 714 mmHg 31%
    21:00 +19°C° 0 mm 2 mps 714 mmHg 29%
    22:00 +19°C° 0 mm 2 mps 714 mmHg 27%
    23:00 +18°C° 0 mm 2 mps 714 mmHg 26%

    4 March, Wednesday

    Time Temperature Precipitation Wind Pressure Humidity
    00:00 +18°C° 0 mm 2 mps 713 mmHg 23%
    01:00 +18°C° 0 mm 2 mps 713 mmHg 20%
    02:00 +17°C° 0 mm 2 mps 713 mmHg 17%
    03:00 +17°C° 0 mm 2 mps 713 mmHg 19%
    04:00 +16°C° 0 mm 2 mps 712 mmHg 20%
    05:00 +16°C° 0 mm 1 mps 712 mmHg 22%
    06:00 +19°C° 0 mm 1 mps 713 mmHg 19%
    07:00 +22°C° 0 mm 1 mps 713 mmHg 17%
    08:00 +24°C° 0 mm 2 mps 714 mmHg 14%
    09:00 +25°C° 0 mm 2 mps 714 mmHg 13%
    10:00 +27°C° 0 mm 2 mps 713 mmHg 12%
    11:00 +28°C° 0 mm 3 mps 713 mmHg 11%
    12:00 +28°C° 0 mm 3 mps 713 mmHg 12%
    13:00 +29°C° 0 mm 3 mps 712 mmHg 12%
    14:00 +29°C° 0 mm 3 mps 712 mmHg 13%
    15:00 +28°C° 0 mm 2 mps 712 mmHg 14%
    16:00 +28°C° 0 mm 2 mps 711 mmHg 15%
    17:00 +27°C° 0 mm 1 mps 711 mmHg 16%
    18:00 +25°C° 0 mm 1 mps 711 mmHg 19%
    19:00 +21°C° 0 mm 0 mps 711 mmHg 22%
    20:00 +19°C° 0 mm 0 mps 712 mmHg 24%
    21:00 +19°C° 0 mm 0 mps 711 mmHg 25%
    22:00 +18°C° 0 mm 0 mps 711 mmHg 25%
    23:00 +17°C° 0 mm 0 mps 711 mmHg 25%

    5 March, Thursday

    Time Temperature Precipitation Wind Pressure Humidity
    00:00 +17°C° 0 mm 0 mps 711 mmHg 24%
    01:00 +16°C° 0 mm 0 mps 710 mmHg 23%
    02:00 +16°C° 0 mm 0 mps 710 mmHg 21%
    03:00 +16°C° 0 mm 0 mps 710 mmHg 21%
    04:00 +15°C° 0 mm 0 mps 710 mmHg 20%
    05:00 +15°C° 0 mm 0 mps 710 mmHg 19%
    06:00 +17°C° 0 mm 0 mps 710 mmHg 17%
    07:00 +21°C° 0 mm 1 mps 710 mmHg 15%
    08:00 +24°C° 0 mm 1 mps 711 mmHg 13%
    09:00 +25°C° 0 mm 1 mps 711 mmHg 13%
    10:00 +26°C° 0 mm 2 mps 711 mmHg 13%
    11:00 +27°C° 0 mm 2 mps 711 mmHg 13%
    12:00 +27°C° 0 mm 2 mps 711 mmHg 13%
    13:00 +27°C° 0 mm 3 mps 710 mmHg 13%
    14:00 +28°C° 0 mm 3 mps 710 mmHg 14%
    15:00 +27°C° 0 mm 3 mps 710 mmHg 15%
    16:00 +27°C° 0 mm 3 mps 709 mmHg 16%
    17:00 +26°C° 0 mm 3 mps 709 mmHg 17%
    18:00 +24°C° 0 mm 2 mps 709 mmHg 23%
    19:00 +23°C° 0 mm 2 mps 710 mmHg 28%
    20:00 +21°C° 0 mm 1 mps 710 mmHg 34%
    21:00 +20°C° 0 mm 1 mps 710 mmHg 34%
    22:00 +20°C° 0 mm 1 mps 711 mmHg 34%
    23:00 +19°C° 0 mm 1 mps 711 mmHg 35%
    Show more